Time,TemperatureF,DewpointF,PressureIn,WindDirection,WindDirectionDegrees,WindSpeedMPH,WindSpeedGustMPH,Humidity,HourlyPrecipIn,Conditions,Clouds,dailyrainin,SolarRadiationWatts/m^2,SoftwareType,DateUTC
2013-06-24 00:01:00,78.2,67.6,29.96,SW,215,2.0,2.0,70,0.00,CLR,,0.00,0.0,WeatherDisplay:10.37,2013-06-24 04:01:00,
2013-06-24 00:02:00,78.1,67.5,29.96,SW,215,2.3,2.3,70,0.00,CLR,,0.00,0.0,WeatherDisplay:10.37,2013-06-24 04:02:00,
2013-06-24 00:07:00,77.8,67.2,29.96,SW,215,2.3,2.3,70,0.00,CLR,,0.00,0.0,WeatherDisplay:10.37,2013-06-24 04:07:00,
2013-06-24 00:12:00,77.5,67.4,29.97,SW,215,1.1,1.1,71,0.00,CLR,,0.00,0.0,WeatherDisplay:10.37,2013-06-24 04:12:00,
2013-06-24 00:17:00,77.1,67.0,29.97,SW,227,1.1,1.1,71,0.00,CLR,,0.00,0.0,WeatherDisplay:10.37,2013-06-24 04:17:00,
2013-06-24 00:22:00,76.8,67.1,29.97,SW,227,0.0,0.0,72,0.00,CLR,,0.00,0.0,WeatherDisplay:10.37,2013-06-24 04:22:00,
2013-06-24 00:27:00,76.5,66.8,29.97,SW,227,2.0,0.0,72,0.00,CLR,,0.00,0.0,WeatherDisplay:10.37,2013-06-24 04:27:00,
2013-06-24 00:32:00,76.2,66.9,29.96,WSW,248,0.0,0.0,73,0.00,CLR,,0.00,0.0,WeatherDisplay:10.37,2013-06-24 04:32:00,
2013-06-24 00:37:00,76.0,67.1,29.96,WSW,248,2.3,2.3,74,0.00,CLR,,0.00,0.0,WeatherDisplay:10.37,2013-06-24 04:37:00,
2013-06-24 00:42:00,75.9,67.0,29.96,WSW,246,2.3,2.3,74,0.00,CLR,,0.00,0.0,WeatherDisplay:10.37,2013-06-24 04:42:00,
2013-06-24 00:47:00,75.7,67.2,29.95,WSW,246,3.5,3.5,75,0.00,CLR,,0.00,0.0,WeatherDisplay:10.37,2013-06-24 04:47:00,
2013-06-24 00:52:00,75.7,67.2,29.95,WSW,246,1.1,1.1,75,0.00,CLR,,0.00,0.0,WeatherDisplay:10.37,2013-06-24 04:52:00,
2013-06-24 00:57:00,75.5,67.0,29.95,WSW,246,0.0,0.0,75,0.00,CLR,,0.00,0.0,WeatherDisplay:10.37,2013-06-24 04:57:00,
2013-06-24 01:02:00,75.2,67.1,29.96,WSW,246,1.1,1.1,76,0.00,CLR,,0.00,0.0,WeatherDisplay:10.37,2013-06-24 05:02:00,
2013-06-24 01:07:00,75.0,67.3,29.95,WSW,246,1.1,1.1,77,0.00,CLR,,0.00,0.0,WeatherDisplay:10.37,2013-06-24 05:07:00,
2013-06-24 01:12:00,74.9,67.2,29.95,WSW,246,1.1,1.1,77,0.00,CLR,,0.00,0.0,WeatherDisplay:10.37,2013-06-24 05:12:00,
2013-06-24 01:17:00,74.6,67.3,29.95,WSW,246,0.0,0.0,78,0.00,CLR,,0.00,0.0,WeatherDisplay:10.37,2013-06-24 05:17:00,
2013-06-24 01:22:00,74.1,66.8,29.95,WSW,246,0.0,0.0,78,0.00,CLR,,0.00,0.0,WeatherDisplay:10.37,2013-06-24 05:22:00,
2013-06-24 01:27:00,73.5,66.9,29.95,WSW,246,1.1,1.1,80,0.00,CLR,,0.00,0.0,WeatherDisplay:10.37,2013-06-24 05:27:00,
2013-06-24 01:32:00,73.1,66.9,29.95,WSW,246,2.3,2.3,81,0.00,CLR,,0.00,0.0,WeatherDisplay:10.37,2013-06-24 05:32:00,
2013-06-24 01:37:00,72.9,66.7,29.96,WSW,246,2.3,2.3,81,0.00,CLR,,0.00,0.0,WeatherDisplay:10.37,2013-06-24 05:37:00,
2013-06-24 01:43:00,72.6,66.8,29.96,SSW,206,3.5,3.5,82,0.00,CLR,,0.00,0.0,WeatherDisplay:10.37,2013-06-24 05:43:00,
2013-06-24 01:48:00,72.3,66.8,29.96,South,190,3.5,3.5,83,0.00,CLR,,0.00,0.0,WeatherDisplay:10.37,2013-06-24 05:48:00,
2013-06-24 01:53:00,72.1,66.6,29.96,SSW,194,4.0,4.0,83,0.00,CLR,,0.00,0.0,WeatherDisplay:10.37,2013-06-24 05:53:00,
2013-06-24 02:00:00,72.2,67.1,29.96,SSW,192,3.5,3.5,84,0.00,CLR,,0.00,0.0,WeatherDisplay:10.37,2013-06-24 06:00:00,
2013-06-24 02:05:00,72.2,66.7,29.96,SSW,205,1.1,1.1,83,0.00,CLR,,0.00,0.0,WeatherDisplay:10.37,2013-06-24 06:05:00,
2013-06-24 02:11:00,72.2,67.1,29.97,SSW,205,4.0,4.0,84,0.00,CLR,,0.00,0.0,WeatherDisplay:10.37,2013-06-24 06:11:00,
2013-06-24 02:16:00,72.3,67.2,29.97,SSW,198,6.9,6.9,84,0.00,CLR,,0.00,0.0,WeatherDisplay:10.37,2013-06-24 06:16:00,
2013-06-24 02:22:00,72.6,67.5,29.97,SSW,198,4.6,4.6,84,0.00,CLR,,0.00,0.0,WeatherDisplay:10.37,2013-06-24 06:22:00,
2013-06-24 02:27:00,73.0,67.5,29.97,SSW,206,4.6,4.6,83,0.00,CLR,,0.00,0.0,WeatherDisplay:10.37,2013-06-24 06:27:00,
2013-06-24 02:33:00,73.3,67.8,29.97,SSW,213,6.9,6.9,83,0.00,CLR,,0.00,0.0,WeatherDisplay:10.37,2013-06-24 06:33:00,
2013-06-24 02:38:00,73.5,67.7,29.97,South,188,5.8,5.8,82,0.00,CLR,,0.00,0.0,WeatherDisplay:10.37,2013-06-24 06:38:00,
2013-06-24 02:43:00,73.6,67.8,29.98,SW,220,6.0,6.0,82,0.00,CLR,,0.00,0.0,WeatherDisplay:10.37,2013-06-24 06:43:00,
2013-06-24 02:49:00,73.7,67.9,29.98,SW,223,5.8,5.8,82,0.00,CLR,,0.00,0.0,WeatherDisplay:10.37,2013-06-24 06:49:00,
2013-06-24 02:54:00,73.8,68.0,29.98,WSW,240,8.1,8.1,82,0.00,CLR,,0.00,0.0,WeatherDisplay:10.37,2013-06-24 06:54:00,
2013-06-24 02:59:00,73.9,68.1,29.98,SW,223,8.1,8.1,82,0.00,CLR,,0.00,0.0,WeatherDisplay:10.37,2013-06-24 06:59:00,
2013-06-24 03:04:00,73.9,68.1,29.98,South,190,10.0,10.0,82,0.00,CLR,,0.00,0.0,WeatherDisplay:10.37,2013-06-24 07:04:00,
2013-06-24 03:09:00,73.9,67.7,29.98,SSW,209,11.5,11.5,81,0.00,CLR,,0.00,0.0,WeatherDisplay:10.37,2013-06-24 07:09:00,
2013-06-24 03:15:00,73.9,67.7,29.98,SSW,212,6.9,6.9,81,0.00,CLR,,0.00,0.0,WeatherDisplay:10.37,2013-06-24 07:15:00,
2013-06-24 03:20:00,73.8,68.0,29.98,SW,214,6.0,12.0,82,0.00,CLR,,0.00,0.0,WeatherDisplay:10.37,2013-06-24 07:20:00,
2013-06-24 03:25:00,73.7,67.9,29.98,SW,219,9.2,9.2,82,0.00,CLR,,0.00,0.0,WeatherDisplay:10.37,2013-06-24 07:25:00,
2013-06-24 03:30:00,73.5,67.7,29.98,SW,223,11.5,11.5,82,0.00,CLR,,0.00,0.0,WeatherDisplay:10.37,2013-06-24 07:30:00,
2013-06-24 03:35:00,73.4,67.6,29.99,SW,221,8.1,8.1,82,0.00,CLR,,0.00,0.0,WeatherDisplay:10.37,2013-06-24 07:35:00,
2013-06-24 03:41:00,73.4,67.6,29.99,SSW,211,5.8,5.8,82,0.00,CLR,,0.00,0.0,WeatherDisplay:10.37,2013-06-24 07:41:00,
2013-06-24 03:46:00,73.4,67.6,29.99,WSW,258,10.4,10.4,82,0.00,CLR,,0.00,0.0,WeatherDisplay:10.37,2013-06-24 07:46:00,
2013-06-24 03:51:00,73.5,67.3,29.99,SSW,213,8.1,8.1,81,0.00,CLR,,0.00,0.0,WeatherDisplay:10.37,2013-06-24 07:51:00,
2013-06-24 03:57:00,73.4,67.2,29.99,WSW,250,11.0,11.0,81,0.00,CLR,,0.00,0.0,WeatherDisplay:10.37,2013-06-24 07:57:00,
2013-06-24 04:02:00,73.3,67.1,29.99,SW,228,8.1,8.1,81,0.00,CLR,,0.00,0.0,WeatherDisplay:10.37,2013-06-24 08:02:00,
2013-06-24 04:07:00,73.3,67.5,29.99,West,266,3.5,3.5,82,0.00,CLR,,0.00,0.0,WeatherDisplay:10.37,2013-06-24 08:07:00,
2013-06-24 04:12:00,73.1,67.3,29.98,SSW,209,6.9,6.9,82,0.00,CLR,,0.00,0.0,WeatherDisplay:10.37,2013-06-24 08:12:00,
2013-06-24 04:17:00,73.0,67.2,29.98,SW,223,5.8,5.8,82,0.00,CLR,,0.00,0.0,WeatherDisplay:10.37,2013-06-24 08:17:00,
2013-06-24 04:23:00,72.8,67.0,29.98,SSW,192,5.8,5.8,82,0.00,CLR,,0.00,0.0,WeatherDisplay:10.37,2013-06-24 08:23:00,
2013-06-24 04:28:00,72.6,66.8,29.98,SW,236,4.0,4.0,82,0.00,CLR,,0.00,0.0,WeatherDisplay:10.37,2013-06-24 08:28:00,
2013-06-24 04:33:00,72.5,67.0,29.98,SW,234,6.9,6.9,83,0.00,CLR,,0.00,0.0,WeatherDisplay:10.37,2013-06-24 08:33:00,
2013-06-24 04:38:00,72.4,66.9,29.99,SW,220,3.5,3.5,83,0.00,CLR,,0.00,0.0,WeatherDisplay:10.37,2013-06-24 08:38:00,
2013-06-24 04:43:00,72.3,66.8,29.98,SSW,210,4.6,4.6,83,0.00,CLR,,0.00,0.0,WeatherDisplay:10.37,2013-06-24 08:43:00,
2013-06-24 04:49:00,72.2,66.7,29.98,SSW,206,4.0,4.0,83,0.00,CLR,,0.00,0.0,WeatherDisplay:10.37,2013-06-24 08:49:00,
2013-06-24 04:54:00,72.1,66.6,29.98,SSW,211,5.8,5.8,83,0.00,CLR,,0.00,0.0,WeatherDisplay:10.37,2013-06-24 08:54:00,
2013-06-24 04:59:00,72.0,66.6,29.97,SSW,203,4.0,4.0,83,0.00,CLR,,0.00,0.0,WeatherDisplay:10.37,2013-06-24 08:59:00,
2013-06-24 05:04:00,71.9,66.5,29.97,SSW,212,3.5,3.5,83,0.00,CLR,,0.00,0.0,WeatherDisplay:10.37,2013-06-24 09:04:00,
2013-06-24 05:10:00,71.8,66.4,29.97,SW,216,2.0,6.0,83,0.00,CLR,,0.00,0.0,WeatherDisplay:10.37,2013-06-24 09:10:00,
2013-06-24 05:15:00,71.7,66.6,29.98,SSW,213,2.0,6.0,84,0.00,CLR,,0.00,0.0,WeatherDisplay:10.37,2013-06-24 09:15:00,
2013-06-24 05:20:00,71.5,66.4,29.97,SW,214,2.0,5.0,84,0.00,CLR,,0.00,0.0,WeatherDisplay:10.37,2013-06-24 09:20:00,
2013-06-24 05:25:00,71.4,66.3,29.97,SSW,211,2.0,5.0,84,0.00,CLR,,0.00,0.0,WeatherDisplay:10.37,2013-06-24 09:25:00,
2013-06-24 05:30:00,71.3,66.2,29.97,SSW,205,2.0,6.0,84,0.00,CLR,,0.00,0.0,WeatherDisplay:10.37,2013-06-24 09:30:00,
2013-06-24 05:35:00,71.2,66.1,29.97,SW,214,4.6,4.6,84,0.00,CLR,,0.00,0.0,WeatherDisplay:10.37,2013-06-24 09:35:00,
2013-06-24 05:40:00,71.1,66.0,29.98,SW,218,2.0,4.0,84,0.00,CLR,,0.00,0.0,WeatherDisplay:10.37,2013-06-24 09:40:00,
2013-06-24 05:45:00,71.0,66.3,29.97,SSW,203,3.5,3.5,85,0.00,CLR,,0.00,0.0,WeatherDisplay:10.37,2013-06-24 09:45:00,
2013-06-24 05:50:00,70.9,66.2,29.97,SSW,213,5.8,5.8,85,0.00,CLR,,0.00,0.0,WeatherDisplay:10.37,2013-06-24 09:50:00,
2013-06-24 05:56:00,70.8,66.1,29.98,SSW,205,5.8,5.8,85,0.00,CLR,,0.00,0.0,WeatherDisplay:10.37,2013-06-24 09:56:00,
2013-06-24 06:01:00,70.7,66.0,29.98,SSW,202,3.5,3.5,85,0.00,CLR,,0.00,0.0,WeatherDisplay:10.37,2013-06-24 10:01:00,
2013-06-24 06:06:00,70.6,65.9,29.97,SSW,202,6.0,6.0,85,0.00,CLR,,0.00,5.0,WeatherDisplay:10.37,2013-06-24 10:06:00,
2013-06-24 06:11:00,70.5,65.8,29.98,SSW,203,5.0,5.0,85,0.00,CLR,,0.00,9.0,WeatherDisplay:10.37,2013-06-24 10:11:00,
2013-06-24 06:16:00,70.5,65.8,29.98,SSW,195,5.8,5.8,85,0.00,CLR,,0.00,11.0,WeatherDisplay:10.37,2013-06-24 10:16:00,
2013-06-24 06:22:00,70.5,65.8,29.98,SW,225,5.8,5.8,85,0.00,CLR,,0.00,12.0,WeatherDisplay:10.37,2013-06-24 10:22:00,
2013-06-24 06:28:00,70.5,65.8,29.98,SSW,202,5.0,5.0,85,0.00,CLR,,0.00,16.0,WeatherDisplay:10.37,2013-06-24 10:28:00,
2013-06-24 06:34:00,70.5,65.8,29.98,SW,233,8.0,8.0,85,0.00,CLR,,0.00,18.0,WeatherDisplay:10.37,2013-06-24 10:34:00,
2013-06-24 06:39:00,70.5,65.8,29.98,WSW,252,6.0,6.0,85,0.00,CLR,,0.00,19.0,WeatherDisplay:10.37,2013-06-24 10:39:00,
2013-06-24 06:44:00,70.5,65.8,29.98,SW,216,4.6,4.6,85,0.00,CLR,,0.00,21.0,WeatherDisplay:10.37,2013-06-24 10:44:00,
2013-06-24 06:49:00,70.5,65.8,29.98,SW,230,6.9,6.9,85,0.00,CLR,,0.00,23.0,WeatherDisplay:10.37,2013-06-24 10:49:00,
2013-06-24 06:55:00,70.6,65.9,29.98,SSW,197,5.8,5.8,85,0.00,CLR,,0.00,26.0,WeatherDisplay:10.37,2013-06-24 10:55:00,
2013-06-24 07:00:00,70.6,65.9,29.99,SSW,211,8.1,8.1,85,0.00,CLR,,0.00,28.0,WeatherDisplay:10.37,2013-06-24 11:00:00,
2013-06-24 07:05:00,70.7,66.0,29.99,SW,228,5.0,8.0,85,0.00,OVC,,0.00,30.0,WeatherDisplay:10.37,2013-06-24 11:05:00,
2013-06-24 07:10:00,70.8,66.0,29.99,SW,224,5.0,8.0,85,0.00,OVC,,0.00,32.0,WeatherDisplay:10.37,2013-06-24 11:10:00,
2013-06-24 07:15:00,70.8,66.1,29.99,SW,218,5.0,8.0,85,0.00,OVC,,0.00,33.0,WeatherDisplay:10.37,2013-06-24 11:15:00,
2013-06-24 07:20:00,70.9,66.2,29.99,WSW,250,6.0,6.0,85,0.00,OVC,,0.00,35.0,WeatherDisplay:10.37,2013-06-24 11:20:00,
2013-06-24 07:25:00,71.0,66.3,29.99,WSW,238,6.9,6.9,85,0.00,OVC,,0.00,37.0,WeatherDisplay:10.37,2013-06-24 11:25:00,
2013-06-24 07:30:00,71.1,66.0,29.99,SSW,210,5.8,5.8,84,0.00,OVC,,0.00,39.0,WeatherDisplay:10.37,2013-06-24 11:30:00,
2013-06-24 07:35:00,71.3,66.2,29.99,WSW,241,7.0,7.0,84,0.00,OVC,,0.00,40.0,WeatherDisplay:10.37,2013-06-24 11:35:00,
2013-06-24 07:40:00,71.5,66.4,29.99,SW,215,8.0,8.0,84,0.00,OVC,,0.00,42.0,WeatherDisplay:10.37,2013-06-24 11:40:00,
2013-06-24 07:45:00,71.8,66.4,29.99,WSW,250,6.9,6.9,83,0.00,OVC,,0.00,44.0,WeatherDisplay:10.37,2013-06-24 11:45:00,
2013-06-24 07:51:00,72.1,66.6,29.99,SW,218,8.1,8.1,83,0.00,OVC,,0.00,47.0,WeatherDisplay:10.37,2013-06-24 11:51:00,
2013-06-24 07:56:00,72.3,66.8,30.00,SW,219,8.0,8.0,83,0.00,OVC,,0.00,49.0,WeatherDisplay:10.37,2013-06-24 11:56:00,
2013-06-24 08:01:00,72.5,66.7,30.00,SSW,202,7.0,7.1,82,0.00,OVC,,0.00,53.0,WeatherDisplay:10.37,2013-06-24 12:01:00,
2013-06-24 08:06:00,72.8,67.0,30.00,WSW,241,10.4,10.4,82,0.00,OVC,,0.00,54.0,WeatherDisplay:10.37,2013-06-24 12:06:00,
2013-06-24 08:11:00,73.0,67.2,30.00,SSW,194,11.5,11.5,82,0.00,OVC,,0.00,72.0,WeatherDisplay:10.37,2013-06-24 12:11:00,
2013-06-24 08:18:00,73.3,67.5,30.00,WSW,247,11.5,11.5,82,0.00,OVC,,0.00,62.0,WeatherDisplay:10.37,2013-06-24 12:18:00,
2013-06-24 08:23:00,73.5,67.3,30.00,SW,234,10.4,10.4,81,0.00,OVC,,0.00,63.0,WeatherDisplay:10.37,2013-06-24 12:23:00,
2013-06-24 08:28:00,73.7,67.5,30.00,WSW,238,11.5,11.5,81,0.00,OVC,,0.00,67.0,WeatherDisplay:10.37,2013-06-24 12:28:00,
2013-06-24 08:33:00,73.9,67.7,30.00,SW,215,12.7,12.7,81,0.00,OVC,,0.00,69.0,WeatherDisplay:10.37,2013-06-24 12:33:00,
2013-06-24 08:38:00,74.0,67.8,30.00,SW,221,9.2,9.2,81,0.00,OVC,,0.00,76.0,WeatherDisplay:10.37,2013-06-24 12:38:00,
2013-06-24 08:43:00,74.2,68.0,30.00,WSW,256,8.0,8.0,81,0.00,OVC,,0.00,74.0,WeatherDisplay:10.37,2013-06-24 12:43:00,
2013-06-24 08:48:00,74.4,68.2,30.00,SSW,199,10.4,10.4,81,0.00,OVC,,0.00,77.0,WeatherDisplay:10.37,2013-06-24 12:48:00,
2013-06-24 08:53:00,74.5,67.9,30.00,WSW,239,11.5,11.5,80,0.00,OVC,,0.00,77.0,WeatherDisplay:10.37,2013-06-24 12:53:00,
2013-06-24 08:59:00,74.7,68.5,30.00,SW,217,8.0,8.0,81,0.00,OVC,,0.00,97.0,WeatherDisplay:10.37,2013-06-24 12:59:00,
2013-06-24 09:04:00,75.0,68.8,30.00,WSW,249,8.1,8.1,81,0.00,OVC,,0.00,381.0,WeatherDisplay:10.37,2013-06-24 13:04:00,
2013-06-24 09:09:00,75.3,68.7,30.00,WSW,244,10.0,10.0,80,0.00,OVC,,0.00,399.0,WeatherDisplay:10.37,2013-06-24 13:09:00,
2013-06-24 09:15:00,75.7,68.7,30.00,WSW,243,12.7,12.7,79,0.00,OVC,,0.00,415.0,WeatherDisplay:10.37,2013-06-24 13:15:00,
2013-06-24 09:20:00,75.9,68.9,30.00,SW,224,8.1,8.1,79,0.00,OVC,,0.00,427.0,WeatherDisplay:10.37,2013-06-24 13:20:00,
2013-06-24 09:25:00,76.3,69.3,29.99,SW,236,6.0,8.0,79,0.00,OVC,,0.00,439.0,WeatherDisplay:10.37,2013-06-24 13:25:00,
2013-06-24 09:30:00,76.7,69.3,30.00,SW,233,5.0,10.0,78,0.00,OVC,,0.00,450.0,WeatherDisplay:10.37,2013-06-24 13:30:00,
2013-06-24 09:35:00,77.1,69.7,30.00,SSW,210,10.4,10.4,78,0.00,OVC,,0.00,454.0,WeatherDisplay:10.37,2013-06-24 13:35:00,
2013-06-24 09:40:00,77.6,69.4,29.99,SW,217,8.1,8.1,76,0.00,OVC,,0.00,478.0,WeatherDisplay:10.37,2013-06-24 13:40:00,
2013-06-24 09:45:00,78.1,69.9,29.99,South,169,8.1,8.1,76,0.00,OVC,,0.00,497.0,WeatherDisplay:10.37,2013-06-24 13:45:00,
2013-06-24 09:51:00,78.5,69.9,29.99,SW,229,11.5,11.5,75,0.00,OVC,,0.00,508.0,WeatherDisplay:10.37,2013-06-24 13:51:00,
2013-06-24 09:56:00,78.6,70.0,29.99,SW,214,9.2,9.2,75,0.00,OVC,,0.00,526.0,WeatherDisplay:10.37,2013-06-24 13:56:00,
2013-06-24 10:01:00,79.0,70.4,29.99,SSW,192,10.4,10.4,75,0.00,OVC,,0.00,536.0,WeatherDisplay:10.37,2013-06-24 14:01:00,
2013-06-24 10:07:00,79.5,70.5,29.99,SSW,204,12.7,12.7,74,0.00,OVC,,0.00,555.0,WeatherDisplay:10.37,2013-06-24 14:07:00,
2013-06-24 10:12:00,79.4,70.4,29.99,SW,223,9.0,9.0,74,0.00,OVC,,0.00,563.0,WeatherDisplay:10.37,2013-06-24 14:12:00,
2013-06-24 10:17:00,79.5,70.1,29.99,SSW,200,12.7,12.7,73,0.00,OVC,,0.00,584.0,WeatherDisplay:10.37,2013-06-24 14:17:00,
2013-06-24 10:22:00,79.5,70.1,29.99,South,189,11.5,11.5,73,0.00,OVC,,0.00,596.0,WeatherDisplay:10.37,2013-06-24 14:22:00,
2013-06-24 10:27:00,79.9,70.1,29.99,SSW,211,16.1,16.1,72,0.00,OVC,,0.00,613.0,WeatherDisplay:10.37,2013-06-24 14:27:00,
2013-06-24 10:33:00,80.2,70.4,29.99,SW,214,11.5,11.5,72,0.00,OVC,,0.00,598.0,WeatherDisplay:10.37,2013-06-24 14:33:00,
2013-06-24 10:38:00,80.3,70.0,29.99,SW,230,13.8,13.8,71,0.00,OVC,,0.00,601.0,WeatherDisplay:10.37,2013-06-24 14:38:00,
2013-06-24 10:43:00,80.3,70.9,29.99,SW,215,10.0,10.0,73,0.00,OVC,,0.00,631.0,WeatherDisplay:10.37,2013-06-24 14:43:00,
2013-06-24 10:48:00,80.4,70.1,29.99,WSW,250,12.7,12.7,71,0.00,OVC,,0.00,666.0,WeatherDisplay:10.37,2013-06-24 14:48:00,
2013-06-24 10:53:00,80.7,70.8,29.99,WSW,248,16.1,16.1,72,0.00,OVC,,0.00,740.0,WeatherDisplay:10.37,2013-06-24 14:53:00,
2013-06-24 10:58:00,80.6,70.3,29.99,WSW,247,10.4,10.4,71,0.00,OVC,,0.00,531.0,WeatherDisplay:10.37,2013-06-24 14:58:00,
2013-06-24 11:03:00,80.5,70.6,29.99,SW,229,13.0,13.0,72,0.00,CLR,,0.00,675.0,WeatherDisplay:10.37,2013-06-24 15:03:00,
2013-06-24 11:09:00,80.6,70.7,29.99,WSW,238,9.2,9.2,72,0.00,CLR,,0.00,698.0,WeatherDisplay:10.37,2013-06-24 15:09:00,
2013-06-24 11:14:00,81.0,70.7,29.99,WSW,249,11.5,11.5,71,0.00,CLR,,0.00,738.0,WeatherDisplay:10.37,2013-06-24 15:14:00,
2013-06-24 11:19:00,81.2,71.7,29.99,SW,223,10.4,10.4,73,0.00,CLR,,0.00,754.0,WeatherDisplay:10.37,2013-06-24 15:19:00,
2013-06-24 11:24:00,81.8,71.5,29.99,WSW,248,15.0,15.0,71,0.00,CLR,,0.00,765.0,WeatherDisplay:10.37,2013-06-24 15:24:00,
2013-06-24 11:30:00,81.8,70.6,29.99,SW,232,10.0,15.0,69,0.00,CLR,,0.00,761.0,WeatherDisplay:10.37,2013-06-24 15:30:00,
2013-06-24 11:35:00,82.1,71.7,29.99,SW,223,7.0,15.0,71,0.00,CLR,,0.00,846.0,WeatherDisplay:10.37,2013-06-24 15:35:00,
2013-06-24 11:40:00,82.4,72.0,29.99,SW,221,5.0,12.0,71,0.00,CLR,,0.00,849.0,WeatherDisplay:10.37,2013-06-24 15:40:00,
2013-06-24 11:45:00,82.9,72.1,29.99,SW,225,6.0,12.0,70,0.00,CLR,,0.00,457.0,WeatherDisplay:10.37,2013-06-24 15:45:00,
2013-06-24 11:50:00,82.3,71.1,29.99,WSW,237,7.0,12.0,69,0.00,CLR,,0.00,446.0,WeatherDisplay:10.37,2013-06-24 15:50:00,
2013-06-24 11:55:00,81.4,70.7,29.99,SSW,213,13.8,13.8,70,0.00,CLR,,0.00,258.0,WeatherDisplay:10.37,2013-06-24 15:55:00,
2013-06-24 12:00:00,81.0,70.3,29.99,West,266,13.8,13.8,70,0.00,CLR,,0.00,262.0,WeatherDisplay:10.37,2013-06-24 16:00:00,
2013-06-24 12:06:00,80.8,71.3,29.99,West,273,11.5,11.5,73,0.00,CLR,,0.00,800.0,WeatherDisplay:10.37,2013-06-24 16:06:00,
2013-06-24 12:11:00,81.4,71.1,29.99,WSW,258,16.1,16.1,71,0.00,CLR,,0.00,923.0,WeatherDisplay:10.37,2013-06-24 16:11:00,
2013-06-24 12:16:00,81.9,71.2,29.99,WSW,242,9.2,9.2,70,0.00,CLR,,0.00,923.0,WeatherDisplay:10.37,2013-06-24 16:16:00,
2013-06-24 12:21:00,82.2,71.0,29.99,West,280,15.0,15.0,69,0.00,CLR,,0.00,874.0,WeatherDisplay:10.37,2013-06-24 16:21:00,
2013-06-24 12:26:00,81.8,70.6,29.99,West,261,12.7,12.7,69,0.00,CLR,,0.00,279.0,WeatherDisplay:10.37,2013-06-24 16:26:00,
2013-06-24 12:31:00,81.5,70.8,29.99,West,261,10.4,10.4,70,0.00,CLR,,0.00,367.0,WeatherDisplay:10.37,2013-06-24 16:31:00,
2013-06-24 12:36:00,81.7,71.0,29.99,SW,236,13.8,13.8,70,0.00,CLR,,0.00,788.0,WeatherDisplay:10.37,2013-06-24 16:36:00,
2013-06-24 12:42:00,82.5,71.3,29.99,SW,217,11.5,11.5,69,0.00,CLR,,0.00,904.0,WeatherDisplay:10.37,2013-06-24 16:42:00,
2013-06-24 12:47:00,83.2,71.5,29.99,SW,218,12.7,12.7,68,0.00,CLR,,0.00,851.0,WeatherDisplay:10.37,2013-06-24 16:47:00,
2013-06-24 12:53:00,82.9,70.8,29.99,WSW,246,12.7,12.7,67,0.00,CLR,,0.00,374.0,WeatherDisplay:10.37,2013-06-24 16:53:00,
2013-06-24 12:58:00,82.8,72.0,29.99,SSW,212,11.5,11.5,70,0.00,CLR,,0.00,703.0,WeatherDisplay:10.37,2013-06-24 16:58:00,
2013-06-24 13:03:00,82.9,71.3,29.99,WSW,252,12.7,12.7,68,0.00,CLR,,0.00,879.0,WeatherDisplay:10.37,2013-06-24 17:03:00,
2013-06-24 13:09:00,82.9,71.7,29.99,SW,231,11.5,11.5,69,0.00,CLR,,0.00,923.0,WeatherDisplay:10.37,2013-06-24 17:09:00,
2013-06-24 13:14:00,83.1,71.9,29.99,WSW,238,12.7,12.7,69,0.00,CLR,,0.00,898.0,WeatherDisplay:10.37,2013-06-24 17:14:00,
2013-06-24 13:19:00,83.3,72.1,29.98,West,281,6.9,6.9,69,0.00,CLR,,0.00,932.0,WeatherDisplay:10.37,2013-06-24 17:19:00,
2013-06-24 13:24:00,83.0,71.3,29.98,West,273,9.2,9.2,68,0.00,FEW,,0.00,271.0,WeatherDisplay:10.37,2013-06-24 17:24:00,
2013-06-24 13:29:00,82.7,71.5,29.98,SW,229,11.0,11.0,69,0.00,CLR,,0.00,965.0,WeatherDisplay:10.37,2013-06-24 17:29:00,
2013-06-24 13:34:00,83.1,71.4,29.98,South,186,13.8,13.8,68,0.00,CLR,,0.00,930.0,WeatherDisplay:10.37,2013-06-24 17:34:00,
2013-06-24 13:39:00,83.2,70.2,29.98,WSW,249,13.8,13.8,65,0.00,CLR,,0.00,1039.0,WeatherDisplay:10.37,2013-06-24 17:39:00,
2013-06-24 13:44:00,83.1,71.0,29.97,WSW,250,17.3,17.3,67,0.00,CLR,,0.00,381.0,WeatherDisplay:10.37,2013-06-24 17:44:00,
2013-06-24 13:49:00,82.9,71.3,29.97,WSW,245,9.2,9.2,68,0.00,CLR,,0.00,381.0,WeatherDisplay:10.37,2013-06-24 17:49:00,
2013-06-24 13:55:00,82.9,71.3,29.97,West,260,5.0,12.0,68,0.00,CLR,,0.00,1053.0,WeatherDisplay:10.37,2013-06-24 17:55:00,
2013-06-24 14:00:00,83.1,71.0,29.97,WSW,250,6.0,9.0,67,0.00,FEW,,0.00,385.0,WeatherDisplay:10.37,2013-06-24 18:00:00,
2013-06-24 14:05:00,83.3,71.6,29.96,SW,228,7.0,14.0,68,0.00,CLR,,0.00,809.0,WeatherDisplay:10.37,2013-06-24 18:05:00,
2013-06-24 14:10:00,83.8,71.7,29.96,SW,225,6.0,9.0,67,0.00,CLR,,0.00,911.0,WeatherDisplay:10.37,2013-06-24 18:10:00,
2013-06-24 14:15:00,84.4,71.3,29.96,SW,235,7.0,13.0,65,0.00,CLR,,0.00,1000.0,WeatherDisplay:10.37,2013-06-24 18:15:00,
2013-06-24 14:21:00,84.3,71.2,29.96,WSW,237,12.7,12.7,65,0.00,CLR,,0.00,939.0,WeatherDisplay:10.37,2013-06-24 18:21:00,
2013-06-24 14:26:00,84.1,71.1,29.95,SSW,193,13.8,13.8,65,0.00,CLR,,0.00,821.0,WeatherDisplay:10.37,2013-06-24 18:26:00,
2013-06-24 14:31:00,83.9,70.9,29.95,WSW,253,6.9,6.9,65,0.00,SCT,,0.00,387.0,WeatherDisplay:10.37,2013-06-24 18:31:00,
2013-06-24 14:37:00,84.2,72.0,29.95,NNW,346,10.4,10.4,67,0.00,CLR,,0.00,1009.0,WeatherDisplay:10.37,2013-06-24 18:37:00,
2013-06-24 14:42:00,84.3,71.7,29.94,WSW,251,8.1,8.1,66,0.00,SCT,,0.00,369.0,WeatherDisplay:10.37,2013-06-24 18:42:00,
2013-06-24 14:47:00,83.8,70.3,29.94,West,271,8.1,8.1,64,0.00,CLR,,0.00,638.0,WeatherDisplay:10.37,2013-06-24 18:47:00,
2013-06-24 14:52:00,83.6,71.0,29.94,WSW,249,10.4,10.4,66,0.00,CLR,,0.00,680.0,WeatherDisplay:10.37,2013-06-24 18:52:00,
2013-06-24 14:57:00,83.6,70.6,29.94,SW,225,8.1,8.1,65,0.00,FEW,,0.00,635.0,WeatherDisplay:10.37,2013-06-24 18:57:00,
2013-06-24 15:02:00,83.8,70.8,29.93,SSW,198,7.0,7.0,65,0.00,SCT,,0.00,494.0,WeatherDisplay:10.37,2013-06-24 19:02:00,
2013-06-24 15:07:00,83.9,71.3,29.93,SW,221,6.0,6.0,66,0.00,CLR,,0.00,773.0,WeatherDisplay:10.37,2013-06-24 19:07:00,
2013-06-24 15:12:00,83.9,70.4,29.93,WSW,239,5.8,5.8,64,0.00,CLR,,0.00,359.0,WeatherDisplay:10.37,2013-06-24 19:12:00,
2013-06-24 15:18:00,83.7,70.7,29.93,SW,228,11.5,11.5,65,0.00,CLR,,0.00,805.0,WeatherDisplay:10.37,2013-06-24 19:18:00,
2013-06-24 15:23:00,84.2,71.2,29.93,West,267,9.2,9.2,65,0.00,CLR,,0.00,833.0,WeatherDisplay:10.37,2013-06-24 19:23:00,
2013-06-24 15:28:00,84.5,70.0,29.92,SW,217,9.2,9.2,62,0.00,CLR,,0.00,733.0,WeatherDisplay:10.37,2013-06-24 19:28:00,
2013-06-24 15:33:00,84.8,70.8,29.92,West,259,8.1,8.1,63,0.00,FEW,,0.00,949.0,WeatherDisplay:10.37,2013-06-24 19:33:00,
2013-06-24 15:39:00,85.5,71.9,29.92,West,274,6.9,6.9,64,0.00,CLR,,0.00,1002.0,WeatherDisplay:10.37,2013-06-24 19:39:00,
2013-06-24 15:44:00,86.1,70.6,29.92,WSW,255,10.4,10.4,60,0.00,CLR,,0.00,983.0,WeatherDisplay:10.37,2013-06-24 19:44:00,
2013-06-24 15:49:00,85.8,70.3,29.91,WNW,286,7.0,7.0,60,0.00,BKN,,0.00,302.0,WeatherDisplay:10.37,2013-06-24 19:49:00,
2013-06-24 15:55:00,85.4,69.9,29.91,West,273,3.5,3.5,60,0.00,CLR,,0.00,953.0,WeatherDisplay:10.37,2013-06-24 19:55:00,
2013-06-24 16:00:00,85.9,70.9,29.91,SW,233,7.0,12.0,61,0.00,CLR,,0.00,940.0,WeatherDisplay:10.37,2013-06-24 20:00:00,
2013-06-24 16:05:00,86.1,71.6,29.91,SSW,207,8.0,12.0,62,0.00,CLR,,0.00,967.0,WeatherDisplay:10.37,2013-06-24 20:05:00,
2013-06-24 16:10:00,86.3,70.8,29.91,SW,217,2.0,7.0,60,0.00,CLR,,0.00,958.0,WeatherDisplay:10.37,2013-06-24 20:10:00,
2013-06-24 16:15:00,86.0,70.0,29.91,SW,232,3.0,12.0,59,0.00,BKN,,0.00,311.0,WeatherDisplay:10.37,2013-06-24 20:15:00,
2013-06-24 16:20:00,86.1,70.6,29.91,SW,216,12.7,12.7,60,0.00,CLR,,0.00,851.0,WeatherDisplay:10.37,2013-06-24 20:20:00,
2013-06-24 16:25:00,86.3,70.3,29.91,SW,219,11.5,11.5,59,0.00,CLR,,0.00,819.0,WeatherDisplay:10.37,2013-06-24 20:25:00,
2013-06-24 16:30:00,86.3,70.3,29.91,SW,233,7.0,7.0,59,0.00,FEW,,0.00,791.0,WeatherDisplay:10.37,2013-06-24 20:30:00,
2013-06-24 16:36:00,86.6,70.6,29.91,SSW,209,9.0,9.0,59,0.00,FEW,,0.00,786.0,WeatherDisplay:10.37,2013-06-24 20:36:00,
2013-06-24 16:41:00,87.0,71.4,29.91,SSW,206,6.9,6.9,60,0.00,FEW,,0.00,765.0,WeatherDisplay:10.37,2013-06-24 20:41:00,
2013-06-24 16:46:00,87.0,70.9,29.90,SW,232,8.0,8.0,59,0.00,FEW,,0.00,735.0,WeatherDisplay:10.37,2013-06-24 20:46:00,
2013-06-24 16:51:00,87.0,70.9,29.90,SW,226,9.2,9.2,59,0.00,SCT,,0.00,705.0,WeatherDisplay:10.37,2013-06-24 20:51:00,
2013-06-24 16:56:00,86.7,69.1,29.90,WSW,244,9.2,9.2,56,0.00,SCT,,0.00,701.0,WeatherDisplay:10.37,2013-06-24 20:56:00,
2013-06-24 17:01:00,86.1,70.1,29.90,SSW,209,6.9,6.9,59,0.00,BKN,,0.00,223.0,WeatherDisplay:10.37,2013-06-24 21:01:00,
2013-06-24 17:07:00,86.1,69.6,29.89,South,173,6.9,6.9,58,0.00,SCT,,0.00,721.0,WeatherDisplay:10.37,2013-06-24 21:07:00,
2013-06-24 17:12:00,86.3,70.3,29.89,SSW,203,9.2,9.2,59,0.00,SCT,,0.00,663.0,WeatherDisplay:10.37,2013-06-24 21:12:00,
2013-06-24 17:17:00,86.4,69.4,29.89,SSW,193,8.1,8.1,57,0.00,SCT,,0.00,698.0,WeatherDisplay:10.37,2013-06-24 21:17:00,
2013-06-24 17:22:00,86.5,70.5,29.88,WSW,250,7.0,7.0,59,0.00,SCT,,0.00,661.0,WeatherDisplay:10.37,2013-06-24 21:22:00,
2013-06-24 17:28:00,86.4,68.3,29.88,WSW,243,6.9,6.9,55,0.00,SCT,,0.00,163.0,WeatherDisplay:10.37,2013-06-24 21:28:00,
2013-06-24 17:34:00,86.0,69.5,29.88,SSW,202,9.2,9.2,58,0.00,BKN,,0.00,336.0,WeatherDisplay:10.37,2013-06-24 21:34:00,
2013-06-24 17:39:00,85.9,69.4,29.88,South,170,13.8,13.8,58,0.00,SCT,,0.00,598.0,WeatherDisplay:10.37,2013-06-24 21:39:00,
2013-06-24 17:44:00,85.9,69.4,29.88,SW,217,11.5,11.5,58,0.00,SCT,,0.00,555.0,WeatherDisplay:10.37,2013-06-24 21:44:00,
2013-06-24 17:49:00,86.1,69.6,29.87,SW,235,4.6,4.6,58,0.00,BKN,,0.00,529.0,WeatherDisplay:10.37,2013-06-24 21:49:00,
2013-06-24 17:54:00,86.4,69.9,29.87,SW,217,6.9,6.9,58,0.00,BKN,,0.00,531.0,WeatherDisplay:10.37,2013-06-24 21:54:00,
2013-06-24 17:59:00,86.6,70.1,29.87,SSW,201,6.0,6.0,58,0.00,BKN,,0.00,506.0,WeatherDisplay:10.37,2013-06-24 21:59:00,
2013-06-24 18:04:00,86.5,70.0,29.87,SW,227,8.1,8.1,58,0.00,BKN,,0.00,490.0,WeatherDisplay:10.37,2013-06-24 22:04:00,
2013-06-24 18:10:00,86.5,70.0,29.87,SSW,200,11.5,11.5,58,0.00,BKN,,0.00,489.0,WeatherDisplay:10.37,2013-06-24 22:10:00,
2013-06-24 18:15:00,86.4,69.4,29.87,West,263,11.5,11.5,57,0.00,BKN,,0.00,462.0,WeatherDisplay:10.37,2013-06-24 22:15:00,
2013-06-24 18:20:00,86.4,70.9,29.88,SW,223,5.8,5.8,60,0.00,BKN,,0.00,461.0,WeatherDisplay:10.37,2013-06-24 22:20:00,
2013-06-24 18:25:00,86.5,70.0,29.88,SSW,212,6.0,10.0,58,0.00,BKN,,0.00,420.0,WeatherDisplay:10.37,2013-06-24 22:25:00,
2013-06-24 18:30:00,86.5,69.5,29.88,WSW,252,11.5,11.5,57,0.00,BKN,,0.00,417.0,WeatherDisplay:10.37,2013-06-24 22:30:00,
2013-06-24 18:35:00,86.0,68.4,29.88,SW,233,7.0,13.0,56,0.00,BKN,,0.00,403.0,WeatherDisplay:10.37,2013-06-24 22:35:00,
2013-06-24 18:40:00,85.7,68.7,29.88,WSW,237,7.0,10.0,57,0.00,BKN,,0.00,390.0,WeatherDisplay:10.37,2013-06-24 22:40:00,
2013-06-24 18:45:00,85.7,69.7,29.88,SSW,205,10.4,10.4,59,0.00,BKN,,0.00,355.0,WeatherDisplay:10.37,2013-06-24 22:45:00,
2013-06-24 18:53:00,85.5,69.5,29.88,SSW,212,11.5,0.0,59,0.00,CLR,,0.00,325.0,WeatherDisplay:10.37,2013-06-24 22:53:00,
2013-06-24 18:58:00,85.3,69.3,29.88,WSW,249,11.5,11.5,59,0.00,BKN,,0.00,311.0,WeatherDisplay:10.37,2013-06-24 22:58:00,
2013-06-24 19:03:00,85.3,68.8,29.88,SSW,207,11.5,11.5,58,0.00,BKN,,0.00,318.0,WeatherDisplay:10.37,2013-06-24 23:03:00,
2013-06-24 19:08:00,85.2,69.3,29.88,West,260,9.0,9.0,59,0.00,BKN,,0.00,287.0,WeatherDisplay:10.37,2013-06-24 23:08:00,
2013-06-24 19:13:00,85.1,69.2,29.88,WSW,241,7.0,7.0,59,0.00,BKN,,0.00,257.0,WeatherDisplay:10.37,2013-06-24 23:13:00,
2013-06-24 19:18:00,84.7,69.3,29.88,SW,220,8.1,8.1,60,0.00,BKN,,0.00,193.0,WeatherDisplay:10.37,2013-06-24 23:18:00,
2013-06-24 19:23:00,84.4,69.5,29.88,SW,225,9.2,9.2,61,0.00,BKN,,0.00,77.0,WeatherDisplay:10.37,2013-06-24 23:23:00,
2013-06-24 19:28:00,84.1,69.2,29.88,West,271,8.1,8.1,61,0.00,BKN,,0.00,74.0,WeatherDisplay:10.37,2013-06-24 23:28:00,
2013-06-24 19:33:00,83.8,68.9,29.88,WSW,240,8.1,8.1,61,0.00,BKN,,0.00,70.0,WeatherDisplay:10.37,2013-06-24 23:33:00,
2013-06-24 19:38:00,83.5,69.1,29.88,WSW,248,6.9,6.9,62,0.00,BKN,,0.00,53.0,WeatherDisplay:10.37,2013-06-24 23:38:00,
2013-06-24 19:43:00,83.3,69.4,29.89,WSW,244,10.0,10.0,63,0.00,OVC,,0.00,12.0,WeatherDisplay:10.37,2013-06-24 23:43:00,
2013-06-24 19:48:00,80.3,69.6,29.91,WSW,251,19.6,19.6,70,0.05,RA,,0.07,5.0,WeatherDisplay:10.37,2013-06-24 23:48:00,
2013-06-24 19:53:00,74.2,66.5,29.93,WSW,249,35.7,35.7,77,0.37,RA,,0.40,7.0,WeatherDisplay:10.37,2013-06-24 23:53:00,
2013-06-24 19:58:00,71.7,66.6,29.91,SSW,196,10.4,10.4,84,0.64,RA,,0.65,25.0,WeatherDisplay:10.37,2013-06-24 23:58:00,
2013-06-24 20:03:00,70.8,67.1,29.91,SSW,196,5.8,5.8,88,0.70,RA,,0.70,47.0,WeatherDisplay:10.37,2013-06-25 00:03:00,
2013-06-24 20:09:00,70.4,67.3,29.91,South,174,4.6,4.6,90,0.70,RA,,0.70,67.0,WeatherDisplay:10.37,2013-06-25 00:09:00,
2013-06-24 20:14:00,70.2,67.4,29.90,South,169,0.0,0.0,91,0.70,BKN,,0.70,72.0,WeatherDisplay:10.37,2013-06-25 00:14:00,
2013-06-24 20:19:00,70.2,67.8,29.89,South,169,0.0,0.0,92,0.70,BKN,,0.70,72.0,WeatherDisplay:10.37,2013-06-25 00:19:00,
2013-06-24 20:25:00,70.2,68.1,29.89,South,169,0.0,0.0,93,0.70,BKN,,0.70,63.0,WeatherDisplay:10.37,2013-06-25 00:25:00,
2013-06-24 20:30:00,70.3,68.2,29.89,South,169,0.0,0.0,93,0.70,CLR,,0.70,49.0,WeatherDisplay:10.37,2013-06-25 00:30:00,
2013-06-24 20:35:00,70.4,68.6,29.89,South,169,0.0,0.0,94,0.00,CLR,,0.70,35.0,WeatherDisplay:10.37,2013-06-25 00:35:00,
2013-06-24 20:40:00,70.3,68.5,29.88,South,169,0.0,0.0,94,0.00,CLR,,0.70,26.0,WeatherDisplay:10.37,2013-06-25 00:40:00,
2013-06-24 20:45:00,70.1,68.0,29.88,South,169,0.0,0.0,93,0.00,CLR,,0.70,23.0,WeatherDisplay:10.37,2013-06-25 00:45:00,
2013-06-24 20:50:00,70.1,68.3,29.88,South,169,0.0,0.0,94,0.00,CLR,,0.70,18.0,WeatherDisplay:10.37,2013-06-25 00:50:00,
2013-06-24 20:55:00,70.1,68.3,29.88,South,169,0.0,0.0,94,0.00,CLR,,0.70,14.0,WeatherDisplay:10.37,2013-06-25 00:55:00,
2013-06-24 21:00:00,70.0,68.2,29.88,South,169,0.0,0.0,94,0.02,CLR,,0.70,11.0,WeatherDisplay:10.37,2013-06-25 01:00:00,
2013-06-24 21:05:00,69.9,68.1,29.88,South,169,1.1,1.1,94,0.00,CLR,,0.70,7.0,WeatherDisplay:10.37,2013-06-25 01:05:00,
2013-06-24 21:10:00,69.8,68.0,29.88,South,169,0.0,0.0,94,0.00,CLR,,0.70,0.0,WeatherDisplay:10.37,2013-06-25 01:10:00,
2013-06-24 21:15:00,69.7,68.2,29.88,South,169,0.0,0.0,95,0.00,CLR,,0.70,0.0,WeatherDisplay:10.37,2013-06-25 01:15:00,
2013-06-24 21:21:00,69.7,68.2,29.88,South,169,0.0,0.0,95,0.00,CLR,,0.70,0.0,WeatherDisplay:10.37,2013-06-25 01:21:00,
2013-06-24 21:26:00,69.7,68.2,29.88,South,169,4.0,4.0,95,0.00,CLR,,0.70,0.0,WeatherDisplay:10.37,2013-06-25 01:26:00,
2013-06-24 21:31:00,69.8,68.3,29.88,South,176,2.3,2.3,95,0.00,CLR,,0.70,0.0,WeatherDisplay:10.37,2013-06-25 01:31:00,
2013-06-24 21:36:00,69.9,68.4,29.92,SW,219,12.0,12.0,95,0.00,CLR,,0.70,0.0,WeatherDisplay:10.37,2013-06-25 01:36:00,
2013-06-24 21:41:00,69.3,67.2,29.92,WSW,247,10.0,10.0,93,0.17,RA,,0.88,0.0,WeatherDisplay:10.37,2013-06-25 01:41:00,
2013-06-24 21:46:00,68.8,67.0,29.91,South,169,6.9,6.9,94,0.26,RA,,0.96,0.0,WeatherDisplay:10.37,2013-06-25 01:46:00,
2013-06-24 21:51:00,68.7,66.9,29.90,SSW,200,2.3,2.3,94,0.27,RA,,0.97,0.0,WeatherDisplay:10.37,2013-06-25 01:51:00,
2013-06-24 21:57:00,68.6,66.8,29.89,SSE,164,2.3,2.3,94,0.27,RA,,0.97,0.0,WeatherDisplay:10.37,2013-06-25 01:57:00,
2013-06-24 22:02:00,68.6,67.1,29.90,South,186,3.5,3.5,95,0.27,CLR,,0.97,0.0,WeatherDisplay:10.37,2013-06-25 02:02:00,
2013-06-24 22:07:00,68.6,67.1,29.90,South,174,3.5,3.5,95,0.27,CLR,,0.98,0.0,WeatherDisplay:10.37,2013-06-25 02:07:00,
2013-06-24 22:12:00,68.6,67.1,29.90,South,174,1.1,1.1,95,0.28,RA,,0.98,0.0,WeatherDisplay:10.37,2013-06-25 02:12:00,
2013-06-24 22:17:00,68.6,67.1,29.91,South,174,3.5,3.5,95,0.28,,,0.98,0.0,WeatherDisplay:10.37,2013-06-25 02:17:00,
2013-06-24 22:22:00,68.6,67.1,29.91,South,169,2.3,2.3,95,0.28,CLR,,0.98,0.0,WeatherDisplay:10.37,2013-06-25 02:22:00,
2013-06-24 22:28:00,68.7,67.5,29.91,South,169,0.0,0.0,96,0.28,CLR,,0.98,0.0,WeatherDisplay:10.37,2013-06-25 02:28:00,
2013-06-24 22:33:00,68.8,67.6,29.91,South,169,0.0,0.0,96,0.28,CLR,,0.98,0.0,WeatherDisplay:10.37,2013-06-25 02:33:00,
2013-06-24 22:38:00,68.9,67.7,29.90,South,169,1.1,0.0,96,0.29,RA,,0.99,0.0,WeatherDisplay:10.37,2013-06-25 02:38:00,
2013-06-24 22:43:00,69.0,67.8,29.89,South,169,1.1,1.1,96,0.08,RA,,0.99,0.0,WeatherDisplay:10.37,2013-06-25 02:43:00,
2013-06-24 22:48:00,69.0,67.8,29.89,South,169,2.0,2.0,96,0.03,CLR,,0.99,0.0,WeatherDisplay:10.37,2013-06-25 02:48:00,
2013-06-24 22:53:00,69.0,67.8,29.89,South,169,0.0,0.0,96,0.02,CLR,,0.99,0.0,WeatherDisplay:10.37,2013-06-25 02:53:00,
2013-06-24 22:58:00,69.0,67.8,29.89,South,169,0.0,0.1,96,0.02,CLR,,0.99,0.0,WeatherDisplay:10.37,2013-06-25 02:58:00,
2013-06-24 23:03:00,68.9,67.7,29.88,South,169,0.0,0.0,96,0.02,CLR,,0.99,0.0,WeatherDisplay:10.37,2013-06-25 03:03:00,
2013-06-24 23:08:00,68.9,67.7,29.88,South,169,0.0,0.0,96,0.01,CLR,,0.99,0.0,WeatherDisplay:10.37,2013-06-25 03:08:00,
2013-06-24 23:13:00,68.8,67.6,29.88,South,169,1.0,1.0,96,0.01,CLR,,0.99,0.0,WeatherDisplay:10.37,2013-06-25 03:13:00,
2013-06-24 23:19:00,68.8,67.6,29.87,South,169,0.0,0.0,96,0.01,CLR,,0.99,0.0,WeatherDisplay:10.37,2013-06-25 03:19:00,
2013-06-24 23:24:00,68.7,67.5,29.87,South,169,0.0,0.0,96,0.01,CLR,,0.99,0.0,WeatherDisplay:10.37,2013-06-25 03:24:00,
2013-06-24 23:29:00,68.6,67.4,29.87,South,169,0.0,0.0,96,0.01,CLR,,0.99,0.0,WeatherDisplay:10.37,2013-06-25 03:29:00,
2013-06-24 23:34:00,68.5,67.3,29.87,South,169,0.0,0.0,96,0.00,CLR,,0.99,0.0,WeatherDisplay:10.37,2013-06-25 03:34:00,
2013-06-24 23:39:00,68.5,67.3,29.87,South,169,1.1,0.0,96,0.00,CLR,,0.99,0.0,WeatherDisplay:10.37,2013-06-25 03:39:00,
2013-06-24 23:44:00,68.4,67.2,29.87,South,169,0.0,0.0,96,0.00,CLR,,0.99,0.0,WeatherDisplay:10.37,2013-06-25 03:44:00,
2013-06-24 23:50:00,68.3,67.1,29.88,South,169,0.0,1.0,96,0.00,CLR,,0.99,0.0,WeatherDisplay:10.37,2013-06-25 03:50:00,
2013-06-24 23:56:00,68.1,66.9,29.88,South,169,0.0,0.0,96,0.00,CLR,,0.99,0.0,WeatherDisplay:10.37,2013-06-25 03:56:00,